Tracking 18032 objects as of 27-March-2017
HD Live streaming from Space Station
objects crossing your sky now

NAVSTAR 37 (USA 117)

Track NAVSTAR 37 (USA 117) now!
NAVSTAR 37 (USA 117) is classified as:


NORAD ID: 23833
Int'l Code: 1996-019A
Perigee: 20,702.0 km
Apogee: 20,753.1 km
Inclination: 54.4 °
Period: 739.9 minutes
Semi major axis: 27098 km
RCS: 4.1981 m2 (large)
Launch date: March 28, 1996
Source: United States (US)
Launch site: AIR FORCE EASTERN TEST RANGE (AFETR)
PRN:
Your satellite tracking list
Your tracking list is empty





NASA's NSSDC Master Catalog

Two Line Element Set (TLE):
1 23833U 96019A   17085.74489552 -.00000053 +00000-0 +00000-0 0  9998
2 23833 054.4057 035.8220 0009423 298.5635 324.6268 01.94618600017185
Source of the keplerian elements: AFSPC